Todos
Briscoes Catarina Ranch Airport (Catarina, TX) 1TE1 Condiciones meteorológicas
There is no TAF data available at 1TE1 or any nearby airports.
There is no METAR data available at 1TE1. Showing METAR data for KCZT (19 mi N).
Historial METAR CZT reciente (no hay datos para 1TE1)
| Date | Time (CDT) | Flight Rules | Wind Dir. | Speed | Type | Height AGL (ft) | Visibility | Temp (°C) | Temp (°F) | Dew Point (°C) | Dew Point (°F) | Rel. Humid. | Pressure | Density Altitude | Remarks |
|---|---|---|---|---|---|---|---|---|---|---|---|---|---|---|---|
| 03-may | 06:15PM | VFR | 140° | 7 kt | 10 miles | 28° | 82° | 9° | 48° | 30% | 30.01 in Hg | 2.068 ft | |||
| 03-may | 05:55PM | VFR | 150° | 6 kt | 10 miles | 28° | 82° | 9° | 48° | 30% | 30.02 in Hg | 2.058 ft | |||
| 03-may | 05:15PM | VFR | 130° | 8 kt | 10 miles | 28° | 82° | 8° | 46° | 28% | 30.02 in Hg | 2.058 ft | |||
| 03-may | 04:55PM | VFR | 150° | 4 kt | 10 miles | 28° | 82° | 9° | 48° | 30% | 30.04 in Hg | 2.038 ft | |||
| 03-may | 04:15PM | VFR | 160° | 9 kt | 10 miles | 28° | 82° | 9° | 48° | 30% | 30.07 in Hg | 2.008 ft | |||
| 03-may | 03:55PM | VFR | 120° | 8 kt | 10 miles | 27° | 80° | 8° | 46° | 30% | 30.08 in Hg | 1.878 ft | |||
| 03-may | 03:15PM | VFR | 170° | 6 kt | 10 miles | 27° | 80° | 8° | 46° | 30% | 30.11 in Hg | 1.848 ft | |||
| 03-may | 02:55PM | VFR | 150° | 8 kt | 10 miles | 27° | 80° | 9° | 48° | 32% | 30.12 in Hg | 1.838 ft | |||
| 03-may | 02:35PM | VFR | 180° | 5 kt | 10 miles | 27° | 80° | 9° | 48° | 32% | 30.13 in Hg | 1.828 ft | |||
| 03-may | 02:15PM | VFR | 140° | 8 kt | 10 miles | 27° | 80° | 10° | 50° | 34% | 30.14 in Hg | 1.818 ft | |||
| 03-may | 01:55PM | VFR | 140° | 7 kt | 10 miles | 26° | 78° | 9° | 48° | 34% | 30.15 in Hg | 1.688 ft | |||
| 03-may | 01:35PM | VFR | 200° | 3 kt | 10 miles | 26° | 78° | 10° | 50° | 37% | 30.17 in Hg | 1.668 ft | |||
| 03-may | 01:15PM | VFR | 140° | 6 kt | 10 miles | 26° | 78° | 10° | 50° | 37% | 30.17 in Hg | 1.668 ft | |||
| 03-may | 12:55PM | VFR | 190° | 7 kt | 10 miles | 25° | 77° | 10° | 50° | 39% | 30.19 in Hg | 1.528 ft | |||
| 03-may | 12:35PM | VFR | 130° | 8 kt | 10 miles | 25° | 77° | 10° | 50° | 39% | 30.20 in Hg | 1.518 ft | |||
| 03-may | 12:15PM | VFR | 180° | 7 kt | 10 miles | 25° | 77° | 10° | 50° | 39% | 30.21 in Hg | 1.508 ft | Wind gusting to 16 KT | ||
| 03-may | 11:55AM | VFR | 170° | 7 kt | 10 miles | 24° | 75° | 11° | 51° | 44% | 30.21 in Hg | 1.388 ft | |||
| 03-may | 11:35AM | VFR | 180° | 7 kt | 10 miles | 23° | 73° | 11° | 51° | 47% | 30.22 in Hg | 1.258 ft | |||
| 03-may | 11:15AM | VFR | 130° | 8 kt | 10 miles | 23° | 73° | 10° | 50° | 44% | 30.22 in Hg | 1.258 ft | |||
| 03-may | 10:55AM | VFR | 180° | 8 kt | 10 miles | 22° | 71° | 11° | 51° | 50% | 30.23 in Hg | 1.128 ft | |||
| 03-may | 10:15AM | VFR | 140° | 6 kt | 10 miles | 21° | 69° | 12° | 53° | 56% | 30.24 in Hg | 998 ft | |||
| 03-may | 09:55AM | VFR | 160° | 3 kt | 10 miles | 20° | 68° | 12° | 53° | 60% | 30.24 in Hg | 878 ft | |||
| 03-may | 09:15AM | VFR | 160° | 3 kt | 10 miles | 18° | 64° | 15° | 59° | 83% | 30.22 in Hg | 658 ft | |||
| 03-may | 08:55AM | VFR | 190° | 3 kt | 10 miles | 16° | 60° | 16° | 60° | 100% | 30.23 in Hg | 408 ft |
Entrar
| Tu navegador no está contemplado. eleva la categoría de tu navegador |
